Location: Masseube
(43.4298°N, 0.5781°E)
Time: 00:04:49
(UTC+00:00)

COSMOS 2455 - Pass Details

Date: 08 August 2025
Orbit: 901 x 907 km, 67.1° (Epoch: 10 May)

Event Time Altitude Azimuth Distance (km) Brightness Sun altitude
Exits shadow 22:43:39 24° 74° (ENE) 1,797 4.3 -28.0°
Drops below altitude 10° 22:46:36 10° 50° (NE) 2,585 5.4 -28.2°
Sets 22:49:23 0° 40° (NE) 3,530 6.3 -28.4°
